Skip Page Navigation
NASA JPL Caltech
NASA Logo - Jet Propulsion Laboratory + View the NASA Portal
+ Center for Near-Earth Object Studies
JPL Home Earth Solar System Stars & Galaxies Technology
JPL Solar System Dynamics
BODIES ORBITS EPHEMERIDES TOOLS PHYSICAL DATA DISCOVERY FAQ SITE MAP
IMPORTANT: The SSD Announcement email list is now available. Major changes are coming in the near future, including possible hostname and/or URL changes. To be notified of such changes, subscribe to this email list.

Please visit this page for more details.


JPL Small-Body Database Browser
Search: [ help ]  
214403 (2005 NG58)
Classification: Main-belt Asteroid          SPK-ID: 2214403
Ephemeris | Orbit Diagram | Orbital Elements | Mission Design | Physical Parameters | Discovery Circumstances | Close-Approach Data ]

[ show orbit diagram ]
Orbital Elements at Epoch 2458600.5 (2019-Apr-27.0) TDB
Reference: JPL 12 (heliocentric ecliptic J2000)
 Element Value Uncertainty (1-sigma)   Units 
e .1505130280015204 3.8936e-08  
a 2.812684113697519 3.662e-08 au
q 2.389338510933133 1.1039e-07 au
i 5.234212350393739 5.8368e-06 deg
node 161.6744951103598 7.274e-05 deg
peri 142.5855535505824 7.8878e-05 deg
M 329.5634884199943 3.2284e-05 deg
tp 2458746.170711562042
(2019-Sep-19.67071156)
0.00015593 TDB
period 1722.978535976009
4.72
3.3649e-05
9.213e-08
d
yr
n .2089405018595152 4.0805e-09 deg/d
Q 3.236029716461906 4.2132e-08 au
  Orbit Determination Parameters
   # obs. used (total)      195  
   data-arc span      4639 days (12.70 yr)  
   first obs. used      2005-07-06  
   last obs. used      2018-03-19  
   planetary ephem.      DE431  
   SB-pert. ephem.      SB431-N16  
   condition code      0  
   norm. resid. RMS      .59548  
   source      ORB  
   producer      Otto Matic  
   solution date      2019-Jul-14 08:48:10  

Additional Information
 Earth MOID = 1.37613 au 
 Jupiter MOID = 2.01851 au 
 T_jup = 3.298 
[ show covariance matrix ]

Ephemeris | Orbit Diagram | Orbital Elements | Mission Design | Physical Parameters | Discovery Circumstances | Close-Approach Data ]

Physical Parameter Table
Parameter Symbol Value Units Sigma Reference Notes
absolute magnitude H 16.4   n/a MPO437026  

214403 (2005 NG58)          Discovered 2005-Jul-06 by Spacewatch at Kitt Peak
Reference: 20090509/Numbers.arcLast Updated: 2009-05-11

[ show close-approach data ]
Alternate Designations
 2005 NG58 = 2006 WH156 
Ephemeris | Orbit Diagram | Orbital Elements | Mission Design | Physical Parameters | Discovery Circumstances | Close-Approach Data ]
ABOUT SSD CREDITS/AWARDS PRIVACY/COPYRIGHT GLOSSARY LINKS
FirstGov 2019-Dec-14 03:03 UT
(server date/time)  
NASA Home Page
Site Manager:   Ryan S. Park
Webmaster  Alan B. Chamberlin